Time,TemperatureF,DewpointF,PressureIn,WindDirection,WindDirectionDegrees,WindSpeedMPH,WindSpeedGustMPH,Humidity,HourlyPrecipIn,Conditions,Clouds,dailyrainin,SolarRadiationWatts/m^2,SoftwareType,DateUTC
2013-04-29 00:02:00,43.0,39.0,-100.00,NW,305,7.0,18.0,85,0.00,,,0.00,10.000000,,2013-04-29 06:02:00,
2013-04-29 00:11:00,43.0,39.0,-100.00,NW,305,7.0,18.0,85,0.00,,,0.00,10.000000,,2013-04-29 06:11:00,
2013-04-29 00:21:00,43.0,39.0,-100.00,NW,305,7.0,18.0,85,0.00,,,0.00,10.000000,,2013-04-29 06:21:00,
2013-04-29 00:32:00,43.0,39.0,-100.00,NW,305,7.0,18.0,85,0.00,,,0.00,10.000000,,2013-04-29 06:32:00,
2013-04-29 01:01:00,44.0,39.0,-100.00,WNW,292,12.0,22.0,81,0.00,,,0.00,22.000000,,2013-04-29 07:01:00,
2013-04-29 01:11:00,44.0,39.0,-100.00,WNW,292,12.0,22.0,81,0.00,,,0.00,22.000000,,2013-04-29 07:11:00,
2013-04-29 01:21:00,44.0,39.0,-100.00,WNW,292,12.0,22.0,81,0.00,,,0.00,22.000000,,2013-04-29 07:21:00,
2013-04-29 01:32:00,44.0,39.0,-100.00,WNW,292,12.0,22.0,81,0.00,,,0.00,22.000000,,2013-04-29 07:32:00,
2013-04-29 02:03:00,44.0,38.0,-100.00,WNW,283,7.0,23.0,80,0.00,,,0.00,27.000000,,2013-04-29 08:03:00,
2013-04-29 02:11:00,44.0,38.0,-100.00,WNW,283,7.0,23.0,80,0.00,,,0.00,27.000000,,2013-04-29 08:11:00,
2013-04-29 02:21:00,44.0,38.0,-100.00,WNW,283,7.0,23.0,80,0.00,,,0.00,27.000000,,2013-04-29 08:21:00,
2013-04-29 02:32:00,44.0,38.0,-100.00,WNW,283,7.0,23.0,80,0.00,,,0.00,27.000000,,2013-04-29 08:32:00,
2013-04-29 03:01:00,45.0,36.0,-100.00,WSW,250,3.0,11.0,70,0.00,,,0.00,10.000000,,2013-04-29 09:01:00,
2013-04-29 03:12:00,45.0,36.0,-100.00,WSW,250,3.0,11.0,70,0.00,,,0.00,10.000000,,2013-04-29 09:12:00,
2013-04-29 03:21:00,45.0,36.0,-100.00,WSW,250,3.0,11.0,70,0.00,,,0.00,10.000000,,2013-04-29 09:21:00,
2013-04-29 03:32:00,45.0,36.0,-100.00,WSW,250,3.0,11.0,70,0.00,,,0.00,10.000000,,2013-04-29 09:32:00,
2013-04-29 04:02:00,44.0,36.0,-100.00,NNW,348,2.0,7.0,74,0.00,,,0.00,12.000000,,2013-04-29 10:02:00,
2013-04-29 04:12:00,44.0,36.0,-100.00,NNW,348,2.0,7.0,74,0.00,,,0.00,12.000000,,2013-04-29 10:12:00,
2013-04-29 04:23:00,44.0,36.0,-100.00,NNW,348,2.0,7.0,74,0.00,,,0.00,12.000000,,2013-04-29 10:23:00,
2013-04-29 04:32:00,44.0,36.0,-100.00,NNW,348,2.0,7.0,74,0.00,,,0.00,12.000000,,2013-04-29 10:32:00,
2013-04-29 05:03:00,41.0,37.0,-100.00,SW,235,3.0,10.0,86,0.00,,,0.00,16.000000,,2013-04-29 11:03:00,
2013-04-29 05:12:00,41.0,37.0,-100.00,SW,235,3.0,10.0,86,0.00,,,0.00,16.000000,,2013-04-29 11:12:00,
2013-04-29 05:21:00,41.0,37.0,-100.00,SW,235,3.0,10.0,86,0.00,,,0.00,16.000000,,2013-04-29 11:21:00,
2013-04-29 05:32:00,41.0,37.0,-100.00,SW,235,3.0,10.0,86,0.00,,,0.00,16.000000,,2013-04-29 11:32:00,
2013-04-29 06:01:00,43.0,38.0,-100.00,South,172,6.0,14.0,81,0.00,,,0.00,10.000000,,2013-04-29 12:01:00,
2013-04-29 06:12:00,43.0,38.0,-100.00,South,172,6.0,14.0,81,0.00,,,0.00,10.000000,,2013-04-29 12:12:00,
2013-04-29 06:22:00,43.0,38.0,-100.00,South,172,6.0,14.0,81,0.00,,,0.00,10.000000,,2013-04-29 12:22:00,
2013-04-29 06:31:00,43.0,38.0,-100.00,South,172,6.0,14.0,81,0.00,,,0.00,10.000000,,2013-04-29 12:31:00,
2013-04-29 07:01:00,42.0,34.0,-100.00,East,79,5.0,13.0,74,0.00,,,0.00,16.000000,,2013-04-29 13:01:00,
2013-04-29 07:11:00,42.0,34.0,-100.00,East,79,5.0,13.0,74,0.00,,,0.00,16.000000,,2013-04-29 13:11:00,
2013-04-29 07:21:00,42.0,34.0,-100.00,East,79,5.0,13.0,74,0.00,,,0.00,16.000000,,2013-04-29 13:21:00,
2013-04-29 07:31:00,42.0,34.0,-100.00,East,79,5.0,13.0,74,0.00,,,0.00,16.000000,,2013-04-29 13:31:00,
2013-04-29 08:02:00,47.0,37.0,-100.00,North,7,4.0,13.0,68,0.00,,,0.00,219.000000,,2013-04-29 14:02:00,
2013-04-29 08:11:00,47.0,37.0,-100.00,North,7,4.0,13.0,68,0.00,,,0.00,219.000000,,2013-04-29 14:11:00,
2013-04-29 08:21:00,47.0,37.0,-100.00,North,7,4.0,13.0,68,0.00,,,0.00,219.000000,,2013-04-29 14:21:00,
2013-04-29 08:32:00,47.0,37.0,-100.00,North,7,4.0,13.0,68,0.00,,,0.00,219.000000,,2013-04-29 14:32:00,
2013-04-29 09:01:00,47.0,36.0,-100.00,SE,136,5.0,12.0,66,0.00,,,0.00,576.000000,,2013-04-29 15:01:00,
2013-04-29 09:12:00,47.0,36.0,-100.00,SE,136,5.0,12.0,66,0.00,,,0.00,576.000000,,2013-04-29 15:12:00,
2013-04-29 09:21:00,47.0,36.0,-100.00,SE,136,5.0,12.0,66,0.00,,,0.00,576.000000,,2013-04-29 15:21:00,
2013-04-29 09:33:00,47.0,36.0,-100.00,SE,136,5.0,12.0,66,0.00,,,0.00,576.000000,,2013-04-29 15:33:00,
2013-04-29 10:03:00,50.0,36.0,-100.00,NE,47,4.0,15.0,58,0.00,,,0.00,397.000000,,2013-04-29 16:03:00,
2013-04-29 10:12:00,50.0,36.0,-100.00,NE,47,4.0,15.0,58,0.00,,,0.00,397.000000,,2013-04-29 16:12:00,
2013-04-29 10:23:00,50.0,36.0,-100.00,NE,47,4.0,15.0,58,0.00,,,0.00,397.000000,,2013-04-29 16:23:00,
2013-04-29 10:33:00,50.0,36.0,-100.00,NE,47,4.0,15.0,58,0.00,,,0.00,397.000000,,2013-04-29 16:33:00,
2013-04-29 11:02:00,51.0,35.0,-100.00,NW,305,8.0,20.0,55,0.00,,,0.00,301.000000,,2013-04-29 17:02:00,
2013-04-29 11:12:00,51.0,35.0,-100.00,NW,305,8.0,20.0,55,0.00,,,0.00,301.000000,,2013-04-29 17:12:00,
2013-04-29 11:22:00,51.0,35.0,-100.00,NW,305,8.0,20.0,55,0.00,,,0.00,301.000000,,2013-04-29 17:22:00,
2013-04-29 11:32:00,51.0,35.0,-100.00,NW,305,8.0,20.0,55,0.00,,,0.00,301.000000,,2013-04-29 17:32:00,
2013-04-29 12:01:00,56.0,37.0,-100.00,WSW,245,8.0,21.0,48,0.00,,,0.00,164.000000,,2013-04-29 18:01:00,
2013-04-29 12:13:00,56.0,37.0,-100.00,WSW,245,8.0,21.0,48,0.00,,,0.00,164.000000,,2013-04-29 18:13:00,
2013-04-29 12:22:00,56.0,37.0,-100.00,WSW,245,8.0,21.0,48,0.00,,,0.00,164.000000,,2013-04-29 18:22:00,
2013-04-29 12:32:00,56.0,37.0,-100.00,WSW,245,8.0,21.0,48,0.00,,,0.00,164.000000,,2013-04-29 18:32:00,
2013-04-29 13:01:00,58.0,37.0,-100.00,SW,214,5.0,18.0,45,0.00,,,0.00,131.000000,,2013-04-29 19:01:00,
2013-04-29 13:11:00,58.0,37.0,-100.00,SW,214,5.0,18.0,45,0.00,,,0.00,131.000000,,2013-04-29 19:11:00,
2013-04-29 13:21:00,58.0,37.0,-100.00,SW,214,5.0,18.0,45,0.00,,,0.00,131.000000,,2013-04-29 19:21:00,
2013-04-29 13:31:00,58.0,37.0,-100.00,SW,214,5.0,18.0,45,0.00,,,0.00,131.000000,,2013-04-29 19:31:00,
2013-04-29 14:02:00,59.0,32.0,-100.00,SE,137,15.0,36.0,36,0.00,,,0.00,105.000000,,2013-04-29 20:02:00,
2013-04-29 14:12:00,59.0,32.0,-100.00,SE,137,15.0,36.0,36,0.00,,,0.00,105.000000,,2013-04-29 20:12:00,
2013-04-29 14:21:00,59.0,32.0,-100.00,SE,137,15.0,36.0,36,0.00,,,0.00,105.000000,,2013-04-29 20:21:00,
2013-04-29 14:32:00,59.0,32.0,-100.00,SE,137,15.0,36.0,36,0.00,,,0.00,105.000000,,2013-04-29 20:32:00,
2013-04-29 15:01:00,64.0,30.0,-100.00,East,98,5.0,37.0,28,0.00,,,0.00,108.000000,,2013-04-29 21:01:00,
2013-04-29 15:11:00,64.0,30.0,-100.00,East,98,5.0,37.0,28,0.00,,,0.00,108.000000,,2013-04-29 21:11:00,
2013-04-29 15:21:00,64.0,30.0,-100.00,East,98,5.0,37.0,28,0.00,,,0.00,108.000000,,2013-04-29 21:21:00,
2013-04-29 15:33:00,64.0,30.0,-100.00,East,98,5.0,37.0,28,0.00,,,0.00,108.000000,,2013-04-29 21:33:00,
2013-04-29 16:02:00,66.0,28.0,-100.00,NNE,28,6.0,18.0,24,0.00,,,0.00,91.000000,,2013-04-29 22:02:00,
2013-04-29 16:13:00,66.0,28.0,-100.00,NNE,28,6.0,18.0,24,0.00,,,0.00,91.000000,,2013-04-29 22:13:00,
2013-04-29 16:23:00,66.0,28.0,-100.00,NNE,28,6.0,18.0,24,0.00,,,0.00,91.000000,,2013-04-29 22:23:00,
2013-04-29 16:32:00,66.0,28.0,-100.00,NNE,28,6.0,18.0,24,0.00,,,0.00,91.000000,,2013-04-29 22:32:00,
2013-04-29 17:02:00,67.0,25.0,-100.00,NW,321,5.0,20.0,20,0.00,,,0.00,26.000000,,2013-04-29 23:02:00,
2013-04-29 17:11:00,67.0,25.0,-100.00,NW,321,5.0,20.0,20,0.00,,,0.00,26.000000,,2013-04-29 23:11:00,
2013-04-29 17:22:00,67.0,25.0,-100.00,NW,321,5.0,20.0,20,0.00,,,0.00,26.000000,,2013-04-29 23:22:00,
2013-04-29 17:32:00,67.0,25.0,-100.00,NW,321,5.0,20.0,20,0.00,,,0.00,26.000000,,2013-04-29 23:32:00,
2013-04-29 18:01:00,68.0,23.0,-100.00,WSW,246,11.0,28.0,18,0.00,,,0.00,17.000000,,2013-04-30 00:01:00,
2013-04-29 18:11:00,68.0,23.0,-100.00,WSW,246,11.0,28.0,18,0.00,,,0.00,17.000000,,2013-04-30 00:11:00,
2013-04-29 18:21:00,68.0,23.0,-100.00,WSW,246,11.0,28.0,18,0.00,,,0.00,17.000000,,2013-04-30 00:21:00,
2013-04-29 18:32:00,68.0,23.0,-100.00,WSW,246,11.0,28.0,18,0.00,,,0.00,17.000000,,2013-04-30 00:32:00,
2013-04-29 19:02:00,66.0,21.0,-100.00,WSW,255,10.0,37.0,18,0.00,,,0.00,2.000000,,2013-04-30 01:02:00,
2013-04-29 19:11:00,66.0,21.0,-100.00,WSW,255,10.0,37.0,18,0.00,,,0.00,2.000000,,2013-04-30 01:11:00,
2013-04-29 19:21:00,66.0,21.0,-100.00,WSW,255,10.0,37.0,18,0.00,,,0.00,2.000000,,2013-04-30 01:21:00,
2013-04-29 19:32:00,66.0,21.0,-100.00,WSW,255,10.0,37.0,18,0.00,,,0.00,2.000000,,2013-04-30 01:32:00,
2013-04-29 20:01:00,67.0,23.0,-100.00,South,176,12.0,41.0,19,0.00,,,0.00,1.000000,,2013-04-30 02:01:00,
2013-04-29 20:11:00,67.0,23.0,-100.00,South,176,12.0,41.0,19,0.00,,,0.00,1.000000,,2013-04-30 02:11:00,
2013-04-29 20:21:00,67.0,23.0,-100.00,South,176,12.0,41.0,19,0.00,,,0.00,1.000000,,2013-04-30 02:21:00,
2013-04-29 20:31:00,67.0,23.0,-100.00,South,176,12.0,41.0,19,0.00,,,0.00,1.000000,,2013-04-30 02:31:00,
2013-04-29 21:01:00,63.0,24.0,-100.00,WSW,254,8.0,34.0,22,0.00,,,0.00,0.000000,,2013-04-30 03:01:00,
2013-04-29 21:11:00,63.0,24.0,-100.00,WSW,254,8.0,34.0,22,0.00,,,0.00,0.000000,,2013-04-30 03:11:00,
2013-04-29 21:21:00,63.0,24.0,-100.00,WSW,254,8.0,34.0,22,0.00,,,0.00,0.000000,,2013-04-30 03:21:00,
2013-04-29 21:33:00,63.0,24.0,-100.00,WSW,254,8.0,34.0,22,0.00,,,0.00,0.000000,,2013-04-30 03:33:00,
2013-04-29 23:02:00,56.0,31.0,-100.00,NNW,328,8.0,23.0,39,-99.99,,,0.00,0.000000,,2013-04-30 05:02:00,
2013-04-29 23:12:00,56.0,31.0,-100.00,NNW,328,8.0,23.0,39,-99.99,,,0.00,0.000000,,2013-04-30 05:12:00,
2013-04-29 23:22:00,56.0,31.0,-100.00,NNW,328,8.0,23.0,39,-99.99,,,0.00,0.000000,,2013-04-30 05:22:00,
2013-04-29 23:31:00,56.0,31.0,-100.00,NNW,328,8.0,23.0,39,-99.99,,,0.00,0.000000,,2013-04-30 05:31:00,